,,Stat6,,Stat2,,Stat8,,Stat9,,Stat10,,Wind1,,Wind1,
time,status,PA1M_AVG,status,PR1M_SUM,status,RH1M_AVG,status,SR1M_AVG,status,TA1M_AVG,status,W1dAve1m,status,W1sAve1m,
2005-09-22, 00:00:00,VALID,920.717,VALID,0,VALID,100,VALID,-0.0169808,VALID,19.6404,VALID,19,VALID,0.454688,
2005-09-22, 00:01:00,VALID,920.681,VALID,0,VALID,100,VALID,-0.0339617,VALID,19.6632,VALID,19,VALID,0.532118,
2005-09-22, 00:02:00,VALID,920.641,VALID,0,VALID,100,VALID,-0.0509425,VALID,19.6669,VALID,38,VALID,0.703658,
2005-09-22, 00:03:00,VALID,920.607,VALID,0,VALID,100,VALID,-0.0339617,VALID,19.6669,VALID,42,VALID,0.685501,
2005-09-22, 00:04:00,VALID,920.599,VALID,0,VALID,100,VALID,-0.0679233,VALID,19.6282,VALID,42,VALID,0.744606,
2005-09-22, 00:05:00,VALID,920.601,VALID,0,VALID,100,VALID,-0.0339617,VALID,19.5798,VALID,39,VALID,0.720052,
2005-09-22, 00:06:00,VALID,920.612,VALID,0,VALID,100,VALID,-0.0679233,VALID,19.5383,VALID,18,VALID,0.897396,
2005-09-22, 00:07:00,VALID,920.6,VALID,0,VALID,100,VALID,-0.0679233,VALID,19.5152,VALID,16,VALID,1.02441,
2005-09-22, 00:08:00,VALID,920.631,VALID,0,VALID,100,VALID,-0.0509425,VALID,19.473,VALID,13,VALID,1.10547,
2005-09-22, 00:09:00,VALID,920.632,VALID,0,VALID,100,VALID,-0.0339617,VALID,19.4536,VALID,13,VALID,1.03942,
2005-09-22, 00:10:00,VALID,920.656,VALID,0,VALID,100,VALID,-0.0849042,VALID,19.4471,VALID,13,VALID,0.893173,
2005-09-22, 00:11:00,VALID,920.646,VALID,0,VALID,100,VALID,-0.0849042,VALID,19.4536,VALID,14,VALID,0.644709,
2005-09-22, 00:12:00,VALID,920.631,VALID,0,VALID,100,VALID,-0.0339617,VALID,19.4307,VALID,13,VALID,0.530506,
2005-09-22, 00:13:00,VALID,920.604,VALID,0,VALID,100,VALID,-0.0339617,VALID,19.4245,VALID,13,VALID,0.262429,
2005-09-22, 00:14:00,VALID,920.585,VALID,0,VALID,100,VALID,-0.0509425,VALID,19.4407,VALID,348,VALID,0.614211,
2005-09-22, 00:15:00,VALID,920.566,VALID,0,VALID,100,VALID,-0.0339617,VALID,19.4531,VALID,326,VALID,0.463663,
2005-09-22, 00:16:00,VALID,920.551,VALID,0,VALID,100,VALID,0.0169808,VALID,19.4851,VALID,326,VALID,0.14335,
2005-09-22, 00:17:00,VALID,920.556,VALID,0,VALID,100,VALID,0,VALID,19.5266,VALID,326,VALID,0.00181686,
2005-09-22, 00:18:00,VALID,920.559,VALID,0,VALID,100,VALID,0,VALID,19.5592,VALID,326,VALID,0,
2005-09-22, 00:19:00,VALID,920.558,VALID,0,VALID,100,VALID,0.0849042,VALID,19.5783,VALID,326,VALID,0.0414663,
2005-09-22, 00:20:00,VALID,920.564,VALID,0,VALID,100,VALID,0.0509425,VALID,19.5882,VALID,326,VALID,0.218085,
2005-09-22, 00:21:00,VALID,920.576,VALID,0,VALID,100,VALID,0.0509425,VALID,19.6205,VALID,326,VALID,0.106831,
2005-09-22, 00:22:00,VALID,920.582,VALID,0,VALID,100,VALID,0.0509425,VALID,19.6302,VALID,326,VALID,0.221839,
2005-09-22, 00:23:00,VALID,920.563,VALID,0,VALID,100,VALID,0.0169808,VALID,19.6394,VALID,326,VALID,0.00725446,
2005-09-22, 00:24:00,VALID,920.545,VALID,0,VALID,100,VALID,0.0339617,VALID,19.6491,VALID,326,VALID,0.0123547,
2005-09-22, 00:25:00,VALID,920.527,VALID,0,VALID,100,VALID,0.0339617,VALID,19.6431,VALID,326,VALID,0,
2005-09-22, 00:26:00,VALID,920.493,VALID,0,VALID,100,VALID,0.0509425,VALID,19.6329,VALID,326,VALID,0.000952744,
2005-09-22, 00:27:00,VALID,920.471,VALID,0,VALID,100,VALID,0.0339617,VALID,19.5654,VALID,326,VALID,0.293605,
2005-09-22, 00:28:00,VALID,920.44,VALID,0,VALID,100,VALID,0.0169808,VALID,19.5852,VALID,326,VALID,0.445313,
2005-09-22, 00:29:00,VALID,920.414,VALID,0,VALID,100,VALID,0.0169808,VALID,19.6011,VALID,333,VALID,0.425686,
2005-09-22, 00:30:00,VALID,920.394,VALID,0,VALID,100,VALID,0.0339617,VALID,19.6429,VALID,335,VALID,0.332919,
2005-09-22, 00:31:00,VALID,920.39,VALID,0,VALID,100,VALID,0.0169808,VALID,19.627,VALID,3,VALID,0.257622,
2005-09-22, 00:32:00,VALID,920.349,VALID,0,VALID,100,VALID,0.0509425,VALID,19.6103,VALID,3,VALID,0.0833333,
2005-09-22, 00:33:00,VALID,920.331,VALID,0,VALID,100,VALID,0,VALID,19.627,VALID,3,VALID,0.12221,
2005-09-22, 00:34:00,VALID,920.303,VALID,0,VALID,100,VALID,0.0169808,VALID,19.6396,VALID,3,VALID,0.241629,
2005-09-22, 00:35:00,VALID,920.29,VALID,0,VALID,100,VALID,0,VALID,19.6525,VALID,3,VALID,0.13502,
2005-09-22, 00:36:00,VALID,920.274,VALID,0,VALID,100,VALID,0,VALID,19.6528,VALID,3,VALID,0.0559593,
2005-09-22, 00:37:00,VALID,920.27,VALID,0,VALID,100,VALID,0.0169808,VALID,19.6593,VALID,3,VALID,0,
2005-09-22, 00:38:00,VALID,920.261,VALID,0,VALID,100,VALID,0.0169808,VALID,19.6781,VALID,3,VALID,0.0586806,
2005-09-22, 00:39:00,VALID,920.254,VALID,0,VALID,100,VALID,0,VALID,19.7047,VALID,3,VALID,0,
2005-09-22, 00:40:00,VALID,920.24,VALID,0,VALID,100,VALID,0,VALID,19.7139,VALID,3,VALID,0.00142045,
2005-09-22, 00:41:00,VALID,920.227,VALID,0,VALID,100,VALID,0,VALID,19.7204,VALID,12,VALID,0.41183,
2005-09-22, 00:42:00,VALID,920.231,VALID,0,VALID,100,VALID,0,VALID,19.7236,VALID,36,VALID,0.630907,
2005-09-22, 00:43:00,VALID,920.223,VALID,0,VALID,100,VALID,0.0169808,VALID,19.691,VALID,37,VALID,0.625206,
2005-09-22, 00:44:00,VALID,920.225,VALID,0,VALID,100,VALID,0.0169808,VALID,19.6751,VALID,38,VALID,0.407885,
2005-09-22, 00:45:00,VALID,920.208,VALID,0,VALID,100,VALID,0.0169808,VALID,19.656,VALID,38,VALID,0.350419,
2005-09-22, 00:46:00,VALID,920.201,VALID,0,VALID,100,VALID,0.0339617,VALID,19.6334,VALID,38,VALID,0.366602,
2005-09-22, 00:47:00,VALID,920.186,VALID,0,VALID,100,VALID,0.0169808,VALID,19.6131,VALID,38,VALID,0.305273,
2005-09-22, 00:48:00,VALID,920.16,VALID,0,VALID,100,VALID,0.0509425,VALID,19.6205,VALID,38,VALID,0.265807,
2005-09-22, 00:49:00,VALID,920.153,VALID,0,VALID,99.9046,VALID,0.0169808,VALID,19.6111,VALID,38,VALID,0.213956,
2005-09-22, 00:50:00,VALID,920.127,VALID,0,VALID,99.6468,VALID,0.0169808,VALID,19.6113,VALID,38,VALID,0.418255,
2005-09-22, 00:51:00,VALID,920.136,VALID,0,VALID,99.4954,VALID,0.0339617,VALID,19.5977,VALID,38,VALID,0.325076,
2005-09-22, 00:52:00,VALID,920.13,VALID,0,VALID,99.2793,VALID,0.0339617,VALID,19.5977,VALID,38,VALID,0.282439,
2005-09-22, 00:53:00,VALID,920.134,VALID,0,VALID,99.0961,VALID,0.0509425,VALID,19.614,VALID,38,VALID,0.216146,
2005-09-22, 00:54:00,VALID,920.135,VALID,0,VALID,98.9804,VALID,0.0679233,VALID,19.6203,VALID,38,VALID,0.0181108,
2005-09-22, 00:55:00,VALID,920.119,VALID,0,VALID,98.8482,VALID,0.0509425,VALID,19.6133,VALID,38,VALID,0,
2005-09-22, 00:56:00,VALID,920.121,VALID,0,VALID,98.7604,VALID,0.0169808,VALID,19.627,VALID,38,VALID,0,
2005-09-22, 00:57:00,VALID,920.112,VALID,0,VALID,98.6752,VALID,0.0169808,VALID,19.627,VALID,38,VALID,0,
2005-09-22, 00:58:00,VALID,920.093,VALID,0,VALID,98.6104,VALID,0.0679233,VALID,19.6198,VALID,38,VALID,0,
2005-09-22, 00:59:00,VALID,920.063,VALID,0,VALID,98.6244,VALID,0.0509425,VALID,19.6098,VALID,38,VALID,0.0321801,
2005-09-22, 01:00:00,VALID,920.029,VALID,0,VALID,98.6638,VALID,0.0169808,VALID,19.6136,VALID,38,VALID,0.351563,
2005-09-22, 01:01:00,VALID,919.99,VALID,0,VALID,98.6562,VALID,0.0169808,VALID,19.6205,VALID,38,VALID,0.362995,
2005-09-22, 01:02:01,VALID,919.943,VALID,0,VALID,98.7108,VALID,0.0169808,VALID,19.6136,VALID,38,VALID,0.221418,
2005-09-22, 01:03:00,VALID,919.906,VALID,0,VALID,98.7833,VALID,0.0339617,VALID,19.6168,VALID,38,VALID,0.0626905,
2005-09-22, 01:04:00,VALID,919.885,VALID,0,VALID,98.8685,VALID,0,VALID,19.6334,VALID,38,VALID,0.0151042,
2005-09-22, 01:05:00,VALID,919.867,VALID,0,VALID,98.8545,VALID,0.0509425,VALID,19.6235,VALID,38,VALID,0,
2005-09-22, 01:06:00,VALID,919.883,VALID,0,VALID,98.8024,VALID,0,VALID,19.6173,VALID,38,VALID,0.113467,
2005-09-22, 01:07:00,VALID,919.867,VALID,0,VALID,98.7045,VALID,0.0509425,VALID,19.578,VALID,38,VALID,0.0465116,
2005-09-22, 01:08:00,VALID,919.865,VALID,0,VALID,98.707,VALID,0.0169808,VALID,19.549,VALID,38,VALID,0.318452,
2005-09-22, 01:09:00,VALID,919.849,VALID,0,VALID,98.852,VALID,0.0509425,VALID,19.5462,VALID,44,VALID,0.418576,
2005-09-22, 01:10:01,VALID,919.847,VALID,0,VALID,98.8711,VALID,0,VALID,19.5398,VALID,68,VALID,0.398037,
2005-09-22, 01:11:00,VALID,919.834,VALID,0,VALID,99.1292,VALID,0,VALID,19.5107,VALID,73,VALID,0.48473,
2005-09-22, 01:12:00,VALID,919.837,VALID,0,VALID,99.2691,VALID,0.0509425,VALID,19.4876,VALID,73,VALID,0.185937,
2005-09-22, 01:13:00,VALID,919.827,VALID,0,VALID,99.2602,VALID,0.0339617,VALID,19.475,VALID,73,VALID,0,
2005-09-22, 01:14:00,VALID,919.842,VALID,0,VALID,99.1724,VALID,0.0169808,VALID,19.4593,VALID,73,VALID,0,
2005-09-22, 01:15:00,VALID,919.836,VALID,0,VALID,98.7643,VALID,-0.0679233,VALID,19.4213,VALID,73,VALID,0,
2005-09-22, 01:16:00,VALID,919.84,VALID,0,VALID,98.6256,VALID,0,VALID,19.4076,VALID,73,VALID,0.0282738,
2005-09-22, 01:17:01,VALID,919.834,VALID,0,VALID,98.6244,VALID,0.0339617,VALID,19.4007,VALID,73,VALID,0.0405869,
2005-09-22, 01:18:01,VALID,919.82,VALID,0,VALID,98.3484,VALID,0.0339617,VALID,19.3684,VALID,66,VALID,0.356179,
2005-09-22, 01:19:00,VALID,919.827,VALID,0,VALID,98.4909,VALID,0.0169808,VALID,19.3398,VALID,22,VALID,0.634629,
2005-09-22, 01:20:00,VALID,919.825,VALID,0,VALID,98.8876,VALID,0.0679233,VALID,19.3426,VALID,22,VALID,0.693892,
2005-09-22, 01:21:00,VALID,919.847,VALID,0,VALID,98.9118,VALID,0.0509425,VALID,19.3232,VALID,22,VALID,0.624112,
2005-09-22, 01:22:01,VALID,919.864,VALID,0,VALID,98.8647,VALID,0.0339617,VALID,19.3041,VALID,19,VALID,0.469122,
2005-09-22, 01:23:00,VALID,919.874,VALID,0,VALID,98.5964,VALID,0,VALID,19.2455,VALID,357,VALID,0.280692,
2005-09-22, 01:24:01,VALID,919.871,VALID,0,VALID,98.9041,VALID,0.0169808,VALID,19.2427,VALID,357,VALID,0.307639,
2005-09-22, 01:25:00,VALID,919.882,VALID,0,VALID,99.0898,VALID,0.0339617,VALID,19.2591,VALID,357,VALID,0.480841,
2005-09-22, 01:26:01,VALID,919.888,VALID,0,VALID,99.2932,VALID,0.0339617,VALID,19.2591,VALID,346,VALID,0.68608,
2005-09-22, 01:27:00,VALID,919.872,VALID,0,VALID,99.6798,VALID,0,VALID,19.2584,VALID,330,VALID,0.56891,
2005-09-22, 01:28:00,VALID,919.848,VALID,0,VALID,99.9537,VALID,0.0339617,VALID,19.2745,VALID,315,VALID,0.469308,
2005-09-22, 01:29:00,VALID,919.817,VALID,0,VALID,100,VALID,0.0509425,VALID,19.2944,VALID,305,VALID,0.118118,
2005-09-22, 01:30:00,VALID,919.792,VALID,0,VALID,100,VALID,0,VALID,19.3036,VALID,305,VALID,0.126359,
2005-09-22, 01:31:00,VALID,919.775,VALID,0,VALID,100,VALID,0.0339617,VALID,19.3361,VALID,305,VALID,0.0125363,
2005-09-22, 01:32:00,VALID,919.768,VALID,0,VALID,99.9964,VALID,0.0339617,VALID,19.3423,VALID,305,VALID,0,
2005-09-22, 01:33:00,VALID,919.778,VALID,0,VALID,99.8858,VALID,0.0339617,VALID,19.3297,VALID,305,VALID,0.133358,
2005-09-22, 01:34:00,VALID,919.786,VALID,0,VALID,99.7854,VALID,0.0339617,VALID,19.3302,VALID,305,VALID,0.21224,
2005-09-22, 01:35:00,VALID,919.805,VALID,0,VALID,99.5921,VALID,0.0339617,VALID,19.3172,VALID,305,VALID,0.254573,
2005-09-22, 01:36:01,VALID,919.807,VALID,0,VALID,99.5819,VALID,0.0169808,VALID,19.3135,VALID,317,VALID,0.552401,
2005-09-22, 01:37:01,VALID,919.819,VALID,0,VALID,99.8337,VALID,0.0169808,VALID,19.3202,VALID,326,VALID,0.467262,
2005-09-22, 01:38:01,VALID,919.829,VALID,0,VALID,99.9916,VALID,0.0509425,VALID,19.3334,VALID,326,VALID,0.318714,
2005-09-22, 01:39:01,VALID,919.836,VALID,0,VALID,100,VALID,0.0339617,VALID,19.3133,VALID,326,VALID,0.0820313,
2005-09-22, 01:40:01,VALID,919.84,VALID,0,VALID,100,VALID,0.0339617,VALID,19.3329,VALID,310,VALID,0.372461,
2005-09-22, 01:41:00,VALID,919.826,VALID,0,VALID,100,VALID,0.0169808,VALID,19.3461,VALID,302,VALID,0.226918,
2005-09-22, 01:42:01,VALID,919.81,VALID,0,VALID,100,VALID,0.0339617,VALID,19.3396,VALID,300,VALID,0.37872,
2005-09-22, 01:43:01,VALID,919.809,VALID,0,VALID,100,VALID,0.0169808,VALID,19.3334,VALID,294,VALID,0.289595,
2005-09-22, 01:44:00,VALID,919.826,VALID,0,VALID,99.9405,VALID,0,VALID,19.3237,VALID,225,VALID,0.409268,
2005-09-22, 01:45:00,VALID,919.848,VALID,0,VALID,99.6735,VALID,0.0169808,VALID,19.2946,VALID,210,VALID,0.428943,
2005-09-22, 01:46:01,VALID,919.853,VALID,0,VALID,99.6874,VALID,0,VALID,19.2624,VALID,174,VALID,0.553977,
2005-09-22, 01:47:01,VALID,919.884,VALID,0,VALID,99.7879,VALID,0.0339617,VALID,19.2527,VALID,149,VALID,0.650112,
2005-09-22, 01:48:00,VALID,919.896,VALID,0,VALID,99.9501,VALID,0,VALID,19.243,VALID,159,VALID,0.771019,
2005-09-22, 01:49:00,VALID,919.909,VALID,0,VALID,100,VALID,0.0169808,VALID,19.2398,VALID,155,VALID,0.765447,
2005-09-22, 01:50:01,VALID,919.894,VALID,0,VALID,100,VALID,0.0339617,VALID,19.2137,VALID,151,VALID,0.614769,
2005-09-22, 01:51:00,VALID,919.893,VALID,0,VALID,100,VALID,0.0169808,VALID,19.2075,VALID,151,VALID,0.571378,
2005-09-22, 01:52:00,VALID,919.865,VALID,0,VALID,100,VALID,0.0169808,VALID,19.2107,VALID,152,VALID,0.577947,
2005-09-22, 01:53:00,VALID,919.851,VALID,0,VALID,100,VALID,0.0339617,VALID,19.2169,VALID,154,VALID,0.352289,
2005-09-22, 01:54:00,VALID,919.828,VALID,0,VALID,100,VALID,0.0509425,VALID,19.2172,VALID,154,VALID,0.0815549,
2005-09-22, 01:55:01,VALID,919.812,VALID,0,VALID,100,VALID,0.0679233,VALID,19.2301,VALID,154,VALID,0,
2005-09-22, 01:56:00,VALID,919.796,VALID,0,VALID,100,VALID,0.0509425,VALID,19.2331,VALID,154,VALID,0.0515988,
2005-09-22, 01:57:00,VALID,919.77,VALID,0,VALID,100,VALID,0.0509425,VALID,19.2522,VALID,154,VALID,0.464236,
2005-09-22, 01:58:01,VALID,919.766,VALID,0,VALID,100,VALID,0,VALID,19.2589,VALID,154,VALID,0.520461,
2005-09-22, 01:59:00,VALID,919.761,VALID,0,VALID,100,VALID,-0.0169808,VALID,19.2596,VALID,154,VALID,0.638715,
2005-09-22, 02:00:01,VALID,919.771,VALID,0,VALID,100,VALID,0,VALID,19.2688,VALID,154,VALID,0.558894,
2005-09-22, 02:01:00,VALID,919.763,VALID,0,VALID,100,VALID,0.0339617,VALID,19.2653,VALID,154,VALID,0.606105,
2005-09-22, 02:02:00,VALID,919.758,VALID,0,VALID,100,VALID,0.0339617,VALID,19.2748,VALID,154,VALID,0.618075,
2005-09-22, 02:03:01,VALID,919.737,VALID,0,VALID,100,VALID,0.0169808,VALID,19.2946,VALID,154,VALID,0.561228,
2005-09-22, 02:04:00,VALID,919.712,VALID,0,VALID,100,VALID,0.0509425,VALID,19.2877,VALID,154,VALID,0.292696,
2005-09-22, 02:05:00,VALID,919.686,VALID,0,VALID,100,VALID,0,VALID,19.3071,VALID,162,VALID,0.335029,
2005-09-22, 02:06:00,VALID,919.67,VALID,0,VALID,100,VALID,0.0169808,VALID,19.32,VALID,189,VALID,0.571057,
2005-09-22, 02:07:01,VALID,919.659,VALID,0,VALID,100,VALID,0.0169808,VALID,19.3599,VALID,201,VALID,0.520579,
2005-09-22, 02:08:01,VALID,919.641,VALID,0,VALID,100,VALID,-0.0169808,VALID,19.3756,VALID,195,VALID,0.255907,
2005-09-22, 02:09:00,VALID,919.624,VALID,0,VALID,99.9763,VALID,0.0169808,VALID,19.385,VALID,192,VALID,0.330611,
2005-09-22, 02:10:00,VALID,919.623,VALID,0,VALID,99.7714,VALID,0.0169808,VALID,19.3783,VALID,191,VALID,0.318359,
2005-09-22, 02:11:00,VALID,919.623,VALID,0,VALID,99.7294,VALID,0,VALID,19.3657,VALID,191,VALID,0.276105,
2005-09-22, 02:12:00,VALID,919.621,VALID,0,VALID,99.7497,VALID,0.0169808,VALID,19.3756,VALID,191,VALID,0.203835,
2005-09-22, 02:13:00,VALID,919.601,VALID,0,VALID,99.6798,VALID,0.0509425,VALID,19.359,VALID,191,VALID,0.168899,
2005-09-22, 02:14:01,VALID,919.599,VALID,0,VALID,99.6213,VALID,0.0339617,VALID,19.3428,VALID,191,VALID,0.0238009,
2005-09-22, 02:15:01,VALID,919.589,VALID,0,VALID,99.7078,VALID,0,VALID,19.3297,VALID,191,VALID,0,
2005-09-22, 02:16:00,VALID,919.59,VALID,0,VALID,99.7625,VALID,0,VALID,19.3336,VALID,191,VALID,0.00109012,
2005-09-22, 02:17:00,VALID,919.58,VALID,0,VALID,99.793,VALID,0,VALID,19.3336,VALID,191,VALID,0,
2005-09-22, 02:18:01,VALID,919.566,VALID,0,VALID,99.7078,VALID,0,VALID,19.311,VALID,191,VALID,0,
2005-09-22, 02:19:01,VALID,919.551,VALID,0,VALID,99.7218,VALID,0,VALID,19.3051,VALID,191,VALID,0.057706,
2005-09-22, 02:20:00,VALID,919.549,VALID,0,VALID,99.737,VALID,0,VALID,19.3053,VALID,191,VALID,0.231357,
2005-09-22, 02:21:00,VALID,919.531,VALID,0,VALID,99.8222,VALID,0.0169808,VALID,19.308,VALID,189,VALID,0.527257,
2005-09-22, 02:22:00,VALID,919.535,VALID,0,VALID,99.8884,VALID,-0.0339617,VALID,19.318,VALID,184,VALID,0.711436,
2005-09-22, 02:23:00,VALID,919.514,VALID,0,VALID,99.9112,VALID,0,VALID,19.2984,VALID,169,VALID,0.528963,
2005-09-22, 02:24:00,VALID,919.514,VALID,0,VALID,99.8744,VALID,-0.0169808,VALID,19.2884,VALID,168,VALID,0.31441,
2005-09-22, 02:25:01,VALID,919.508,VALID,0,VALID,99.9415,VALID,-0.0169808,VALID,19.2926,VALID,152,VALID,0.421474,
2005-09-22, 02:26:00,VALID,919.496,VALID,0,VALID,99.9858,VALID,0,VALID,19.2857,VALID,145,VALID,0.535937,
2005-09-22, 02:27:01,VALID,919.468,VALID,0,VALID,99.9916,VALID,0,VALID,19.2854,VALID,134,VALID,0.56582,
2005-09-22, 02:28:01,VALID,919.453,VALID,0,VALID,100,VALID,0.0169808,VALID,19.2889,VALID,124,VALID,0.614769,
2005-09-22, 02:29:00,VALID,919.437,VALID,0,VALID,99.9743,VALID,0,VALID,19.2633,VALID,115,VALID,0.636896,
2005-09-22, 02:30:00,VALID,919.425,VALID,0,VALID,99.9746,VALID,-0.0169808,VALID,19.2308,VALID,106,VALID,0.636905,
2005-09-22, 02:31:01,VALID,919.399,VALID,0,VALID,99.9802,VALID,0,VALID,19.1819,VALID,102,VALID,0.796875,
2005-09-22, 02:32:01,VALID,919.374,VALID,0,VALID,100,VALID,0,VALID,19.1766,VALID,102,VALID,0.938388,
2005-09-22, 02:33:00,VALID,919.353,VALID,0,VALID,100,VALID,0,VALID,19.1436,VALID,87,VALID,0.904167,
2005-09-22, 02:34:01,VALID,919.337,VALID,0,VALID,100,VALID,0,VALID,19.1339,VALID,91,VALID,0.891768,
2005-09-22, 02:35:00,VALID,919.327,VALID,0,VALID,100,VALID,0,VALID,19.1178,VALID,95,VALID,0.897879,
2005-09-22, 02:36:00,VALID,919.318,VALID,0,VALID,100,VALID,0,VALID,19.095,VALID,101,VALID,0.988281,
2005-09-22, 02:37:01,VALID,919.307,VALID,0,VALID,100,VALID,0.0169808,VALID,19.0947,VALID,105,VALID,0.950521,
2005-09-22, 02:38:01,VALID,919.304,VALID,0,VALID,100,VALID,0.0169808,VALID,19.0885,VALID,113,VALID,0.947129,
2005-09-22, 02:39:01,VALID,919.276,VALID,0,VALID,100,VALID,0.0169808,VALID,19.1049,VALID,112,VALID,0.969097,
2005-09-22, 02:40:01,VALID,919.245,VALID,0,VALID,100,VALID,0.0169808,VALID,19.082,VALID,90,VALID,0.842115,
2005-09-22, 02:41:01,VALID,919.232,VALID,0,VALID,100,VALID,0.0169808,VALID,19.0493,VALID,94,VALID,1.0013,
2005-09-22, 02:42:00,VALID,919.201,VALID,0,VALID,100,VALID,0,VALID,19.0406,VALID,91,VALID,0.806686,
2005-09-22, 02:43:01,VALID,919.177,VALID,0,VALID,100,VALID,0.0339617,VALID,19.0078,VALID,94,VALID,1.00986,
2005-09-22, 02:44:00,VALID,919.177,VALID,0,VALID,100,VALID,0,VALID,18.9919,VALID,81,VALID,0.966844,
2005-09-22, 02:45:00,VALID,919.186,VALID,0,VALID,100,VALID,0,VALID,18.9688,VALID,82,VALID,1.08121,
2005-09-22, 02:46:01,VALID,919.19,VALID,0,VALID,100,VALID,0.0339617,VALID,18.9559,VALID,82,VALID,0.947115,
2005-09-22, 02:47:00,VALID,919.23,VALID,0,VALID,100,VALID,0.0339617,VALID,18.9241,VALID,85,VALID,0.887277,
2005-09-22, 02:48:00,VALID,919.251,VALID,0,VALID,100,VALID,0,VALID,18.8978,VALID,97,VALID,0.805043,
2005-09-22, 02:49:01,VALID,919.263,VALID,0,VALID,100,VALID,0.0169808,VALID,18.8985,VALID,99,VALID,0.898438,
2005-09-22, 02:50:00,VALID,919.276,VALID,0,VALID,100,VALID,0,VALID,18.8923,VALID,94,VALID,0.807706,
2005-09-22, 02:51:00,VALID,919.274,VALID,0,VALID,100,VALID,0,VALID,18.8662,VALID,89,VALID,0.99201,
2005-09-22, 02:52:01,VALID,919.268,VALID,0,VALID,100,VALID,-0.0339617,VALID,18.8434,VALID,87,VALID,0.939546,
2005-09-22, 02:53:01,VALID,919.241,VALID,0,VALID,100,VALID,0.0169808,VALID,18.8272,VALID,88,VALID,0.709985,
2005-09-22, 02:54:01,VALID,919.209,VALID,0,VALID,100,VALID,0.0339617,VALID,18.8242,VALID,89,VALID,0.60556,
2005-09-22, 02:55:00,VALID,919.18,VALID,0,VALID,100,VALID,0,VALID,18.8111,VALID,81,VALID,0.636541,
2005-09-22, 02:56:01,VALID,919.158,VALID,0,VALID,100,VALID,0,VALID,18.8049,VALID,114,VALID,0.750908,
2005-09-22, 02:57:01,VALID,919.143,VALID,0,VALID,100,VALID,0,VALID,18.8307,VALID,123,VALID,0.894903,
2005-09-22, 02:58:01,VALID,919.134,VALID,0,VALID,100,VALID,0,VALID,18.8501,VALID,139,VALID,0.854353,
2005-09-22, 02:59:00,VALID,919.123,VALID,0,VALID,100,VALID,0.0169808,VALID,18.8364,VALID,137,VALID,1.05562,
2005-09-22, 03:00:01,VALID,919.099,VALID,0,VALID,100,VALID,0.0169808,VALID,18.8531,VALID,125,VALID,1.11031,
2005-09-22, 03:01:01,VALID,919.096,VALID,0,VALID,100,VALID,-0.0509425,VALID,18.851,VALID,123,VALID,0.968564,
2005-09-22, 03:02:00,VALID,919.082,VALID,0,VALID,100,VALID,-0.118866,VALID,18.8577,VALID,131,VALID,1.01635,
2005-09-22, 03:03:00,VALID,919.078,VALID,0,VALID,100,VALID,-0.101885,VALID,18.8778,VALID,129,VALID,1.35508,
2005-09-22, 03:04:01,VALID,919.081,VALID,0,VALID,100,VALID,-0.101885,VALID,18.8771,VALID,132,VALID,1.12791,
2005-09-22, 03:05:01,VALID,919.093,VALID,0,VALID,100,VALID,-0.0849042,VALID,18.8798,VALID,139,VALID,1.23746,
2005-09-22, 03:06:01,VALID,919.081,VALID,0,VALID,100,VALID,-0.101885,VALID,18.8801,VALID,132,VALID,1.50127,
2005-09-22, 03:07:01,VALID,919.081,VALID,0,VALID,100,VALID,-0.118866,VALID,18.8741,VALID,127,VALID,1.18342,
2005-09-22, 03:08:00,VALID,919.082,VALID,0,VALID,100,VALID,-0.101885,VALID,18.8711,VALID,122,VALID,1.10689,
2005-09-22, 03:09:01,VALID,919.094,VALID,0,VALID,100,VALID,-0.118866,VALID,18.8642,VALID,124,VALID,1.29215,
2005-09-22, 03:10:00,VALID,919.086,VALID,0,VALID,100,VALID,-0.0849042,VALID,18.8679,VALID,131,VALID,0.975852,
2005-09-22, 03:11:01,VALID,919.073,VALID,0,VALID,100,VALID,-0.0849042,VALID,18.8644,VALID,121,VALID,0.927144,
2005-09-22, 03:12:01,VALID,919.047,VALID,0,VALID,100,VALID,-0.101885,VALID,18.8939,VALID,117,VALID,0.846007,
2005-09-22, 03:13:01,VALID,919.017,VALID,0,VALID,100,VALID,-0.101885,VALID,18.8905,VALID,107,VALID,1.01892,
2005-09-22, 03:14:01,VALID,919.007,VALID,0,VALID,100,VALID,-0.101885,VALID,18.8962,VALID,97,VALID,1.18288,
2005-09-22, 03:15:01,VALID,918.987,VALID,0,VALID,100,VALID,-0.101885,VALID,18.9287,VALID,95,VALID,1.12593,
2005-09-22, 03:16:01,VALID,918.974,VALID,0,VALID,100,VALID,-0.0339617,VALID,18.931,VALID,89,VALID,1.1157,
2005-09-22, 03:17:01,VALID,918.965,VALID,0,VALID,100,VALID,0,VALID,18.937,VALID,86,VALID,1.26581,
2005-09-22, 03:18:01,VALID,918.961,VALID,0,VALID,100,VALID,0,VALID,18.9377,VALID,76,VALID,1.24432,
2005-09-22, 03:19:01,VALID,918.943,VALID,0,VALID,100,VALID,0,VALID,18.8953,VALID,62,VALID,1.28924,
2005-09-22, 03:20:01,VALID,918.931,VALID,0,VALID,100,VALID,-0.0339617,VALID,18.8411,VALID,63,VALID,1.54613,
2005-09-22, 03:21:01,VALID,918.925,VALID,0,VALID,100,VALID,0,VALID,18.7957,VALID,64,VALID,1.26879,
2005-09-22, 03:22:01,VALID,918.908,VALID,0,VALID,100,VALID,0,VALID,18.7823,VALID,82,VALID,1.15949,
2005-09-22, 03:23:01,VALID,918.884,VALID,0,VALID,100,VALID,0,VALID,18.7984,VALID,77,VALID,0.83724,
2005-09-22, 03:24:01,VALID,918.856,VALID,0,VALID,100,VALID,0.0169808,VALID,18.792,VALID,93,VALID,0.761719,
2005-09-22, 03:25:01,VALID,918.835,VALID,0,VALID,100,VALID,0,VALID,18.792,VALID,102,VALID,0.798147,
2005-09-22, 03:26:01,VALID,918.821,VALID,0,VALID,100,VALID,0,VALID,18.7823,VALID,100,VALID,0.637649,
2005-09-22, 03:27:01,VALID,918.817,VALID,0,VALID,100,VALID,0.0339617,VALID,18.7562,VALID,72,VALID,0.559837,
2005-09-22, 03:28:01,VALID,918.815,VALID,0,VALID,100,VALID,0.0169808,VALID,18.7309,VALID,58,VALID,0.717969,
2005-09-22, 03:29:01,VALID,918.809,VALID,0,VALID,100,VALID,0,VALID,18.705,VALID,78,VALID,0.819568,
2005-09-22, 03:30:01,VALID,918.818,VALID,0,VALID,100,VALID,0.0169808,VALID,18.6884,VALID,90,VALID,1.0952,
2005-09-22, 03:31:01,VALID,918.811,VALID,0,VALID,100,VALID,0.0339617,VALID,18.6958,VALID,90,VALID,0.917333,
2005-09-22, 03:32:01,VALID,918.821,VALID,0,VALID,100,VALID,0,VALID,18.6857,VALID,102,VALID,1.01583,
2005-09-22, 03:33:01,VALID,918.812,VALID,0,VALID,100,VALID,0.0169808,VALID,18.6785,VALID,104,VALID,0.748094,
2005-09-22, 03:34:01,VALID,918.821,VALID,0,VALID,100,VALID,0,VALID,18.6829,VALID,107,VALID,0.536086,
2005-09-22, 03:35:01,VALID,918.823,VALID,0,VALID,100,VALID,0.0169808,VALID,18.6794,VALID,121,VALID,0.3992,
2005-09-22, 03:36:01,VALID,918.811,VALID,0,VALID,100,VALID,0,VALID,18.6698,VALID,121,VALID,0.547476,
2005-09-22, 03:37:01,VALID,918.808,VALID,0,VALID,100,VALID,0.0339617,VALID,18.6626,VALID,121,VALID,0.417515,
2005-09-22, 03:38:01,VALID,918.799,VALID,0,VALID,100,VALID,0,VALID,18.6499,VALID,121,VALID,0.334162,
2005-09-22, 03:39:01,VALID,918.804,VALID,0,VALID,100,VALID,0,VALID,18.6181,VALID,121,VALID,0.387784,
2005-09-22, 03:40:01,VALID,918.809,VALID,0,VALID,100,VALID,0,VALID,18.5955,VALID,121,VALID,0.277431,